Location: Avon
(37.7514°N, 90.2235°W)
Time: 15:42:04
(UTC+00:00)

Tiros 1 - Visible Passes

Search period start: 02 November 2024 00:00
Search period end: 12 November 2024 00:00
Orbit: 622 x 654 km, 48.4° (Epoch: 01 November)

Date Brightness Start Highest point End Pass type
(mag) Time Alt. Az. Time Alt. Az. Time Alt. Az.
02 Nov 9.9 09:34:03 13° SE 09:34:03 13° SE 09:34:29 10° SE visible
02 Nov 9.2 11:11:35 12° SW 11:11:35 12° SW 11:13:02 10° SSW visible
03 Nov 9.8 09:56:59 10° SSE 09:56:59 10° SSE 09:57:01 10° SSE visible
04 Nov 9.7 01:39:01 10° SSW 01:39:36 13° SSW 01:39:36 13° SSW visible
05 Nov 8.8 00:21:53 10° S 00:24:52 18° SE 00:24:52 18° SE visible
05 Nov 9.9 02:01:53 10° WSW 02:02:23 13° WSW 02:02:23 13° WSW visible
06 Nov 7.8 00:43:30 10° SSW 00:47:34 39° SSE 00:47:34 39° SSE visible
06 Nov 9.0 23:26:49 10° SSE 23:29:27 15° SE 23:32:08 10° E visible
07 Nov 7.4 01:06:10 10° SW 01:10:09 63° SW 01:10:09 63° SW visible
07 Nov 8.0 23:47:59 10° SSW 23:52:13 33° SE 23:55:09 17° E visible
08 Nov 8.5 01:29:28 10° WSW 01:32:38 37° W 01:32:38 37° W visible
09 Nov 7.1 00:10:28 10° SW 00:15:09 72° SE 00:17:32 29° ENE visible
09 Nov 9.5 01:53:12 10° W 01:55:01 20° WNW 01:55:01 20° WNW visible
10 Nov 7.5 00:33:38 10° WSW 00:38:17 59° NNW 00:39:49 39° NNE visible
10 Nov 10.3 02:17:06 10° WNW 02:17:19 11° WNW 02:17:19 11° WNW visible
10 Nov 7.4 23:14:45 10° SW 23:19:23 61° SE 23:24:04 10° ENE visible
11 Nov 8.2 00:57:15 10° W 01:01:37 35° NNW 01:02:03 35° N visible
11 Nov 7.4 23:37:46 10° WSW 23:42:27 68° NNW 23:46:44 13° NE visible
